Farmingdale, NY

5:03 AM EST on December 09, 2016 (GMT -0500)
Republic

Weather History for KFRG - April, 2014

Change the Weather History Date:

Friday, April 4, 2014

  Actual Average Record
Temperature  
Mean Temperature 41 °F -  
Max Temperature 43 °F 52 °F 66 °F (1997)
Min Temperature 39 °F 36 °F 30 °F (2013)
Degree Days  
Heating Degree Days 24    
Moisture  
Dew Point 36 °F    
Average Humidity 82    
Maximum Humidity 97    
Minimum Humidity 65    
Precipitation  
Precipitation 0.02 in - - ()
Sea Level Pressure  
Sea Level Pressure 29.97 in    
Wind  
Wind Speed 10 mph (East)    
Max Wind Speed 18 mph    
Max Gust Speed 29 mph    
Visibility 8 miles    
Events Rain    
Averages and records for this station are not official NWS values.
T = Trace of Precipitation, MM = Missing Value Source: NWS Daily Summary

Daily Weather History Graph

Daily Weather History Graph

Search for Another Location

Airport or City:

Trip Planner

Search our weather history database for the weather conditions in past years. The results will help you decide how hot, cold, wet, or windy it might be!

Date:

Astronomy

Apr. 04, 2014 Rise Set
Actual Time 6:32 AM EDT 7:21 PM EDT
Civil Twilight 6:04 AM EDT 7:49 PM EDT
Nautical Twilight 5:31 AM EDT 8:22 PM EDT
Astronomical Twilight 4:57 AM EDT 8:56 PM EDT
Moon 9:45 AM EDT (4/4) No Moon Set
Length of Visible Light 13h 44m
Length of Day
12h 49m
Waxing Crescent, 25% of the Moon is Illuminated
Apr 4
Waxing Crescent
Apr 7
First Quarter
Apr 15
Full
Apr 22
Last Quarter
Apr 29
New

Hourly Weather History & Observations

Time (EDT) Temp. Windchill Dew Point Humidity Pressure Visibility Wind Dir Wind Speed Gust Speed Precip Events Conditions
12:53 AM 43.0 °F 40.3 °F 39.0 °F 86% 30.11 in 10.0 mi ESE 4.6 mph - 0.01 in   Overcast
1:53 AM 42.1 °F 37.1 °F 37.9 °F 85% 30.11 in 10.0 mi ESE 8.1 mph - 0.00 in   Overcast
2:53 AM 42.1 °F 36.6 °F 37.0 °F 82% 30.09 in 10.0 mi ESE 9.2 mph - 0.00 in   Overcast
3:53 AM 42.1 °F 38.4 °F 36.0 °F 79% 30.08 in 10.0 mi ESE 5.8 mph - N/A   Overcast
4:53 AM 41.0 °F 35.2 °F 36.0 °F 82% 30.08 in 10.0 mi ESE 9.2 mph - 0.00 in   Overcast
5:53 AM 41.0 °F 35.8 °F 35.1 °F 79% 30.07 in 10.0 mi ESE 8.1 mph - N/A   Overcast
6:53 AM 42.1 °F 37.7 °F 35.1 °F 76% 30.08 in 10.0 mi East 6.9 mph - 0.00 in   Overcast
7:53 AM 41.0 °F - 35.1 °F 79% 30.09 in 8.0 mi North - - 0.01 in Rain Light Rain
8:53 AM 41.0 °F 37.1 °F 37.0 °F 86% 30.08 in 10.0 mi Variable 5.8 mph - 0.00 in   Overcast
9:53 AM 43.0 °F 36.8 °F 35.1 °F 74% 30.06 in 10.0 mi ESE 11.5 mph - N/A   Overcast
10:53 AM 42.1 °F 34.5 °F 33.1 °F 70% 30.06 in 10.0 mi East 15.0 mph - N/A   Overcast
11:53 AM 42.1 °F 33.9 °F 30.9 °F 65% 30.07 in 10.0 mi ESE 17.3 mph 24.2 mph N/A   Overcast
12:53 PM 42.1 °F 34.9 °F 33.1 °F 70% 30.06 in 10.0 mi East 13.8 mph 20.7 mph N/A   Overcast
1:53 PM 41.0 °F 32.5 °F 33.1 °F 73% 30.03 in 10.0 mi East 17.3 mph 24.2 mph N/A   Overcast
2:53 PM 39.9 °F 31.4 °F 34.0 °F 79% 30.00 in 5.0 mi East 16.1 mph 28.8 mph 0.00 in Rain Light Rain
3:53 PM 39.9 °F 30.8 °F 35.1 °F 83% 29.97 in 8.0 mi ESE 18.4 mph 24.2 mph 0.00 in   Overcast
4:09 PM 39.2 °F 31.2 °F 35.6 °F 87% 29.96 in 9.0 mi East 13.8 mph 26.5 mph N/A   Overcast
4:53 PM 39.0 °F 29.6 °F 35.1 °F 86% 29.92 in 6.0 mi East 18.4 mph 24.2 mph N/A   Overcast
5:53 PM 39.9 °F 31.4 °F 35.1 °F 83% 29.90 in 10.0 mi ESE 16.1 mph 27.6 mph N/A   Overcast
6:00 PM 39.2 °F 31.6 °F 35.6 °F 87% 29.89 in 6.0 mi ESE 12.7 mph 23.0 mph N/A   Overcast
6:53 PM 39.9 °F 31.1 °F 36.0 °F 86% 29.87 in 4.0 mi ESE 17.3 mph 26.5 mph 0.00 in   Overcast
7:28 PM 39.2 °F 31.2 °F 35.6 °F 87% 29.85 in 10.0 mi East 13.8 mph 26.5 mph 0.00 in   Overcast
7:53 PM 39.9 °F 34.5 °F 37.0 °F 89% 29.87 in 10.0 mi ENE 8.1 mph 25.3 mph 0.00 in   Overcast
8:53 PM 41.0 °F 32.8 °F 37.9 °F 89% 29.84 in 9.0 mi East 16.1 mph 23.0 mph N/A   Overcast
9:14 PM 41.0 °F 34.7 °F 37.4 °F 87% 29.82 in 7.0 mi East 10.4 mph 20.7 mph N/A   Overcast
9:36 PM 42.8 °F 35.8 °F 37.4 °F 81% 29.82 in 8.0 mi East 13.8 mph - N/A   Overcast
9:53 PM 42.1 °F 35.7 °F 39.0 °F 89% 29.82 in 8.0 mi East 11.5 mph - N/A   Overcast
10:10 PM 42.8 °F 38.0 °F 39.2 °F 87% 29.82 in 7.0 mi ENE 8.1 mph - N/A   Overcast
10:53 PM 42.1 °F 37.1 °F 39.9 °F 92% 29.79 in 5.0 mi East 8.1 mph - 0.00 in   Overcast
11:53 PM 43.0 °F 38.2 °F 42.1 °F 97% 29.74 in 3.0 mi East 8.1 mph - N/A   Overcast